Ypsilanti, MI

8:05 PM EDT on April 30, 2017 (GMT -0400)
Willow Run

Weather History for KYIP - April, 2014

Change the Weather History Date:

Wednesday, April 2, 2014

  Actual Average Record
Temperature  
Mean Temperature 48 °F -  
Max Temperature 59 °F 52 °F 75 °F (2003)
Min Temperature 37 °F 34 °F 24 °F (1992)
Degree Days  
Heating Degree Days 17    
Moisture  
Dew Point 25 °F    
Average Humidity 47    
Maximum Humidity 65    
Minimum Humidity 23    
Precipitation  
Precipitation 0.00 in - - ()
Sea Level Pressure  
Sea Level Pressure 30.13 in    
Wind  
Wind Speed 7 mph (NNW)    
Max Wind Speed 13 mph    
Max Gust Speed -    
Visibility 10 miles    
Events      
Averages and records for this station are not official NWS values.
T = Trace of Precipitation, MM = Missing Value Source: NWS Daily Summary

Daily Weather History Graph

Daily Weather History Graph

Search for Another Location

Airport or City:

Trip Planner

Search our weather history database for the weather conditions in past years. The results will help you decide how hot, cold, wet, or windy it might be!

Date:

Astronomy

Apr. 02, 2014 Rise Set
Actual Time 7:14 AM EDT 8:01 PM EDT
Civil Twilight 6:46 AM EDT 8:29 PM EDT
Nautical Twilight 6:13 AM EDT 9:03 PM EDT
Astronomical Twilight 5:38 AM EDT 9:38 PM EDT
Moon 8:55 AM EDT (4/2) 11:26 PM EDT (4/2)
Length of Visible Light 13h 42m
Length of Day
12h 46m
Waxing Crescent, 10% of the Moon is Illuminated
Apr 2
Waxing Crescent
Apr 7
First Quarter
Apr 15
Full
Apr 22
Last Quarter
Apr 29
New

Hourly Weather History & Observations

Time (EDT) Temp. Windchill Dew Point Humidity Pressure Visibility Wind Dir Wind Speed Gust Speed Precip Events Conditions
12:53 AM 39.2 °F 32.5 °F 26.6 °F 61% 30.05 in 10.0 mi West 10.4 mph - N/A   Clear
1:53 AM 37.4 °F 32.1 °F 24.8 °F 60% 30.05 in 10.0 mi WNW 6.9 mph - N/A   Clear
2:53 AM 39.2 °F 33.0 °F 26.6 °F 61% 30.07 in 10.0 mi West 9.2 mph - N/A   Clear
3:53 AM 37.4 °F 32.1 °F 26.6 °F 65% 30.08 in 10.0 mi WSW 6.9 mph - N/A   Scattered Clouds
4:53 AM 37.4 °F 32.1 °F 24.8 °F 60% 30.08 in 10.0 mi NW 6.9 mph - N/A   Scattered Clouds
6:53 AM 37.4 °F 32.8 °F 24.8 °F 60% 30.12 in 10.0 mi NNW 5.8 mph - N/A   Mostly Cloudy
8:53 AM 39.2 °F 35.0 °F 24.8 °F 56% 30.16 in 10.0 mi West 5.8 mph - N/A   Clear
9:53 AM 42.8 °F 41.1 °F 24.8 °F 49% 30.16 in 10.0 mi Variable 3.5 mph - N/A   Clear
11:53 AM 48.2 °F - 24.8 °F 40% 30.16 in 10.0 mi Variable 3.5 mph - N/A   Clear
12:53 PM 51.8 °F - 26.6 °F 38% 30.16 in 10.0 mi Variable 5.8 mph - N/A   Clear
1:53 PM 53.6 °F - 24.8 °F 33% 30.16 in 10.0 mi Variable 4.6 mph - N/A   Clear
2:53 PM 55.4 °F - 26.6 °F 33% 30.14 in 10.0 mi Variable 4.6 mph - N/A   Clear
3:53 PM 57.2 °F - 23.0 °F 27% 30.13 in 10.0 mi SW 5.8 mph - N/A   Clear
4:53 PM 59.0 °F - 21.2 °F 23% 30.12 in 10.0 mi North 4.6 mph - N/A   Clear
6:53 PM 57.2 °F - 23.0 °F 27% 30.12 in 10.0 mi NNE 6.9 mph - N/A   Clear
7:53 PM 51.8 °F - 24.8 °F 35% 30.13 in 10.0 mi ENE 5.8 mph - N/A   Clear
9:53 PM 44.6 °F 43.1 °F 26.6 °F 49% 30.17 in 10.0 mi ENE 3.5 mph - N/A   Partly Cloudy
10:53 PM 46.4 °F 40.7 °F 30.2 °F 53% 30.18 in 10.0 mi ENE 12.7 mph - N/A   Overcast
11:53 PM 42.8 °F 36.6 °F 28.4 °F 57% 30.17 in 10.0 mi ENE 11.5 mph - N/A   Overcast